GW0029 Weather Reports


Display with metric or nautical units.
time (UTC)temp
F
wind
direction
speed
MPH
gust
MPH
rain 1hr
in
rain 24hr
in
rain mn
in
humidity
%
barometer
mb
20260904212004 56 225 0.0 2.0 0.00 0.10 0.10 100 995.9
20260904211503 56 0 0.0 0.0 0.00 0.10 0.10 100 995.9
20260904211005 56 0 0.0 0.0 0.00 0.10 0.10 100 995.9
20260904210503 56 185 1.0 8.0 0.00 0.10 0.10 100 995.9
20260904210005 56 196 2.0 8.0 0.00 0.10 0.10 100 995.9
20260904205503 56 219 1.0 6.0 0.00 0.10 0.10 100 995.9
20260904205004 56 231 1.0 4.0 0.00 0.10 0.10 100 995.9
20260904204504 56 238 1.0 5.0 0.00 0.10 0.10 100 995.9
20260904203004 56 219 1.0 6.0 0.00 0.10 0.10 100 995.9
20260904202004 56 232 0.0 3.0 0.00 0.10 0.10 100 995.9
20260904201504 56 0 0.0 0.0 0.00 0.10 0.10 100 995.9
20260904200503 56 0 0.0 0.0 0.00 0.10 0.10 100 995.9
20260904200005 56 0 0.0 0.0 0.00 0.10 0.10 100 995.9
20260904195503 56 0 0.0 0.0 0.00 0.10 0.10 100 995.9
20260904195005 56 0 0.0 0.0 0.00 0.10 0.10 100 995.9
20260904194503 56 0 0.0 0.0 0.00 0.10 0.10 100 995.9
20260904194005 56 0 0.0 0.0 0.00 0.10 0.10 100 995.9
20260904193503 56 0 0.0 0.0 0.00 0.10 0.10 100 995.9
20260904193004 56 0 0.0 0.0 0.00 0.16 0.10 100 995.9
20260904192504 56 0 0.0 0.0 0.00 0.16 0.10 97 995.9
20260904191503 56 0 0.0 0.0 0.00 0.16 0.10 97 995.9
20260904191005 56 0 0.0 0.0 0.00 0.16 0.10 97 995.9
20260904190503 56 0 0.0 0.0 0.00 0.16 0.10 97 995.9
20260904190005 56 0 0.0 0.0 0.00 0.16 0.10 97 995.9
20260904185503 56 0 0.0 0.0 0.00 0.16 0.10 97 995.9
20260904185005 56 0 0.0 0.0 0.00 0.16 0.10 97 995.9
20260904184503 56 248 0.0 4.0 0.00 0.16 0.10 97 995.9
20260904184005 56 248 0.0 4.0 0.00 0.16 0.10 97 995.9
20260904183504 56 0 0.0 0.0 0.00 0.16 0.10 97 995.9
20260904183005 57 0 0.0 0.0 0.00 0.16 0.10 97 995.9
20260904182504 57 0 0.0 0.0 0.00 0.16 0.10 97 995.9
20260904182005 57 0 0.0 0.0 0.00 0.16 0.10 97 995.9
20260904181503 57 0 0.0 0.0 0.00 0.16 0.10 97 995.9
20260904181005 57 0 0.0 0.0 0.00 0.16 0.10 96 995.9
20260904180503 57 0 0.0 0.0 0.00 0.16 0.10 96 995.9
20260904180005 57 0 0.0 0.0 0.00 0.16 0.10 96 995.9
20260904175503 57 0 0.0 0.0 0.00 0.16 0.10 96 995.9
20260904175005 57 0 0.0 0.0 0.00 0.16 0.10 96 995.9
20260904174503 57 0 0.0 0.0 0.00 0.16 0.10 96 995.9
20260904174004 58 0 0.0 0.0 0.00 0.16 0.10 96 995.9
20260904173504 58 0 0.0 0.0 0.00 0.16 0.10 96 995.9
20260904173004 58 0 0.0 0.0 0.00 0.16 0.10 96 995.9
20260904172504 58 0 0.0 0.0 0.00 0.16 0.10 96 996.9
20260904172004 58 227 0.0 3.0 0.00 0.16 0.10 96 996.9
20260904171004 59 225 0.0 2.0 0.00 0.16 0.10 95 995.9
20260904170504 59 281 0.0 2.0 0.00 0.16 0.10 96 995.9
20260904170005 59 237 0.0 2.0 0.00 0.16 0.10 96 995.9
20260904165504 60 218 0.0 2.0 0.00 0.16 0.10 96 995.9
20260904165004 60 248 0.0 2.0 0.00 0.16 0.10 96 995.9
20260904164503 60 0 0.0 0.0 0.00 0.16 0.10 95 995.9
20260904164005 60 0 0.0 0.0 0.00 0.16 0.10 95 995.9
20260904163503 60 266 0.0 3.0 0.00 0.16 0.10 96 995.9
20260904163004 60 266 0.0 3.0 0.00 0.16 0.10 96 995.9
20260904162504 60 0 0.0 0.0 0.00 0.21 0.10 96 995.9
20260904161504 59 0 0.0 0.0 0.00 0.21 0.10 96 995.9
20260904161004 59 0 0.0 0.0 0.00 0.21 0.10 96 995.9
20260904160503 59 337 0.0 3.0 0.00 0.21 0.10 96 995.9
20260904155005 60 330 1.0 6.0 0.00 0.21 0.10 96 995.9
20260904154503 59 337 1.0 6.0 0.00 0.21 0.10 96 995.9
20260904153005 58 321 2.0 6.0 0.00 0.21 0.10 97 995.9
20260904152503 58 324 3.0 6.0 0.00 0.21 0.10 97 995.9
20260904152005 58 327 3.0 5.0 0.00 0.21 0.10 97 995.9
20260904151503 58 325 1.0 5.0 0.00 0.21 0.10 96 995.9
20260904151005 59 304 0.0 4.0 0.00 0.21 0.10 96 995.9
20260904150005 59 317 1.0 6.0 0.00 0.26 0.10 96 995.9
20260904144503 58 314 0.0 4.0 0.00 0.26 0.10 96 995.9
20260904144004 58 314 0.0 3.0 0.00 0.31 0.10 95 996.9
20260904143504 58 314 0.0 3.0 0.00 0.31 0.10 95 996.9
20260904143004 58 299 0.0 3.0 0.00 0.31 0.10 96 996.9
20260904142504 58 310 2.0 6.0 0.00 0.36 0.10 95 996.9
20260904142005 58 317 4.0 7.0 0.00 0.36 0.10 95 996.9
20260904141504 58 320 2.0 7.0 0.00 0.36 0.10 95 996.9
20260904141005 58 305 0.0 3.0 0.00 0.36 0.10 95 996.9
20260904140503 58 312 1.0 6.0 0.00 0.36 0.10 95 996.9
20260904135503 59 313 2.0 7.0 0.00 0.36 0.10 95 996.9
20260904135004 59 315 2.0 7.0 0.00 0.41 0.10 95 996.9
20260904134504 59 321 1.0 7.0 0.00 0.41 0.10 95 996.9
20260904134004 59 0 0.0 0.0 0.00 0.41 0.10 95 996.9
20260904133004 60 280 0.0 2.0 0.00 0.41 0.10 95 996.9
20260904132504 60 248 0.0 1.0 0.00 0.46 0.10 95 996.9
20260904132004 60 192 0.0 5.0 0.00 0.46 0.10 95 996.9
20260904131504 60 192 0.0 5.0 0.00 0.46 0.10 95 996.9
20260904130504 60 200 3.0 6.0 0.00 0.46 0.10 94 997.9
20260904130004 60 195 3.0 6.0 0.00 0.46 0.10 94 997.9
20260904125504 60 197 3.0 6.0 0.00 0.46 0.10 94 997.9
20260904125004 60 197 3.0 6.0 0.00 0.46 0.10 94 997.9
20260904124504 60 197 2.0 5.0 0.00 0.46 0.10 94 997.9
20260904124004 60 197 3.0 7.0 0.00 0.41 0.05 94 997.9
20260904123504 60 199 4.0 7.0 0.00 0.41 0.05 94 997.9
20260904123005 60 194 4.0 7.0 0.00 0.41 0.05 94 997.9
20260904122505 60 197 4.0 8.0 0.00 0.41 0.05 94 996.9
20260904121504 60 200 2.0 7.0 0.00 0.41 0.05 93 996.9
20260904121004 60 199 3.0 7.0 0.00 0.41 0.05 93 997.9
20260904120005 60 198 3.0 5.0 0.00 0.41 0.05 92 997.9
20260904115005 60 188 1.0 5.0 0.00 0.41 0.05 92 997.9
20260904114504 60 192 1.0 5.0 0.00 0.41 0.05 91 997.9
20260904114004 60 197 1.0 5.0 0.00 0.41 0.05 91 997.9
20260904113503 60 203 0.0 2.0 0.00 0.41 0.05 91 997.9
20260904113004 60 0 0.0 0.0 0.00 0.41 0.05 91 997.9
20260904112503 60 181 0.0 1.0 0.00 0.41 0.05 90 997.9
20260904112005 60 161 0.0 5.0 0.00 0.41 0.05 89 997.9
20260904111503 60 172 1.0 5.0 0.00 0.36 0.00 89 997.9
20260904111005 60 182 0.0 3.0 0.00 0.36 0.00 89 998.9
20260904110503 60 203 0.0 1.0 0.00 0.36 0.00 88 998.9
20260904110005 60 0 0.0 0.0 0.00 0.36 0.00 88 998.9
20260904105503 60 164 0.0 4.0 0.00 0.36 0.00 88 998.9
20260904105005 60 183 1.0 4.0 0.00 0.36 0.00 87 998.9
20260904104504 60 188 1.0 3.0 0.00 0.36 0.00 87 998.9
20260904104005 60 176 1.0 5.0 0.00 0.36 0.00 87 998.9
20260904103504 60 173 1.0 5.0 0.00 0.36 0.00 87 998.9
20260904102504 61 185 1.0 4.0 0.00 0.36 0.00 86 998.9
20260904102004 61 174 0.0 4.0 0.00 0.36 0.00 86 998.9
20260904101504 61 0 0.0 0.0 0.00 0.36 0.00 86 998.9
20260904101004 61 0 0.0 0.0 0.00 0.36 0.00 85 999.9
20260904100503 62 0 0.0 0.0 0.00 0.36 0.00 85 999.9
20260904100004 62 236 0.0 4.0 0.00 0.42 0.00 84 999.9
20260904095004 62 217 2.0 11.0 0.00 0.53 0.00 83 1000.9
20260904094504 63 222 3.0 11.0 0.00 0.58 0.00 83 1000.9
20260904094004 63 222 3.0 7.0 0.00 0.58 0.00 84 999.9
20260904093504 63 225 3.0 9.0 0.00 0.58 0.00 84 999.9
20260904093004 63 214 3.0 9.0 0.00 0.58 0.00 83 999.9
20260904092503 63 230 3.0 7.0 0.00 0.58 0.00 83 999.9
20260904092005 63 236 3.0 8.0 0.00 0.58 0.00 83 999.9
20260904091504 63 226 4.0 9.0 0.00 0.58 0.00 83 999.9
20260904091004 63 232 3.0 9.0 0.00 0.58 0.00 83 999.9
20260904090504 63 233 2.0 7.0 0.00 0.58 0.00 83 999.9
20260904085005 63 219 3.0 8.0 0.00 0.58 0.00 82 999.9
20260904084005 63 235 3.0 5.0 0.00 0.58 0.00 81 999.9
20260904083503 63 234 3.0 8.0 0.00 0.58 0.00 81 999.9
20260904083004 63 238 3.0 8.0 0.00 0.58 0.00 81 999.9
20260904082503 63 239 3.0 8.0 0.00 0.58 0.00 82 999.9
20260904082005 63 224 3.0 9.0 0.00 0.58 0.00 81 999.9
20260904081503 63 212 3.0 9.0 0.00 0.58 0.00 80 999.9
20260904081005 63 209 2.0 6.0 0.00 0.58 0.00 82 999.9
20260904080503 63 212 2.0 8.0 0.00 0.58 0.00 83 999.9
20260904075503 62 229 2.0 6.0 0.00 0.58 0.00 85 999.9
20260904075005 62 229 2.0 8.0 0.00 0.58 0.00 85 999.9
20260904074504 62 249 2.0 8.0 0.00 0.58 0.00 84 999.9
20260904074005 62 276 2.0 5.0 0.00 0.58 0.00 85 1000.9
20260904073004 61 268 2.0 7.0 0.00 0.58 0.00 85 1000.9
20260904072503 61 275 1.0 6.0 0.00 0.58 0.00 85 1000.9
20260904072005 61 286 2.0 6.0 0.00 0.58 0.00 84 1000.9
20260904071504 61 287 2.0 13.0 0.00 0.58 0.00 84 1000.9
20260904071005 61 292 2.0 13.0 0.00 0.58 0.00 84 1000.9
20260904070504 60 298 2.0 11.0 0.00 0.58 0.00 84 1000.9
20260904070004 60 279 3.0 11.0 0.00 0.58 0.00 84 1000.9
20260904065504 60 255 3.0 7.0 0.00 0.58 0.00 85 1000.9
20260904064504 60 262 6.0 16.0 0.00 0.58 0.00 82 1000.9
20260904064004 60 253 5.0 16.0 0.00 0.58 0.00 83 1000.9
20260904063005 60 259 3.0 8.0 0.00 0.58 0.00 83 1000.9
20260904062504 60 275 2.0 10.0 0.00 0.58 0.00 85 1001.9
20260904062005 59 293 3.0 11.0 0.00 0.58 0.00 86 1001.9
20260904061503 59 280 6.0 14.0 0.00 0.58 0.00 85 1001.9
20260904061004 59 271 6.0 14.0 0.00 0.58 0.00 85 1001.9
20260904060503 59 276 5.0 14.0 0.00 0.58 0.00 86 1001.9
20260904060005 59 270 5.0 14.0 0.00 0.58 0.00 86 1001.9
20260904055503 59 281 4.0 11.0 0.00 0.58 0.00 87 1001.9
20260904055004 59 263 3.0 12.0 0.00 0.58 0.00 87 1001.9
20260904054005 59 273 5.0 17.0 0.00 0.58 0.00 87 1000.9
20260904053503 59 299 4.0 17.0 0.00 0.58 0.00 87 1000.9
20260904053004 58 292 4.0 10.0 0.00 0.58 0.00 87 1000.9
20260904052503 58 271 4.0 10.0 0.00 0.58 0.00 87 1001.9
20260904052004 58 258 4.0 12.0 0.00 0.58 0.00 87 1001.9
20260904051503 58 260 4.0 12.0 0.00 0.58 0.00 88 1001.9
20260904051004 58 265 3.0 8.0 0.00 0.58 0.00 88 1001.9
20260904050504 58 307 2.0 10.0 0.00 0.58 0.00 87 1001.9
20260904050005 58 296 3.0 10.0 0.00 0.58 0.00 87 1001.9
20260904045504 58 271 5.0 17.0 0.00 0.58 0.00 87 1000.9
20260904044504 58 262 3.0 11.0 0.00 0.58 0.00 87 1000.9
20260904044004 58 265 2.0 11.0 0.00 0.58 0.00 88 1001.9
20260904043005 58 277 4.0 17.0 0.00 0.58 0.00 87 1001.9
20260904042504 58 275 2.0 8.0 0.00 0.58 0.00 88 1000.9
20260904042005 58 270 5.0 11.0 0.00 0.58 0.00 87 1000.9
20260904041503 58 268 6.0 15.0 0.00 0.58 0.00 87 1000.9
20260904041004 58 262 8.0 18.0 0.00 0.58 0.00 87 1000.9
20260904040503 58 262 7.0 18.0 0.00 0.58 0.00 87 1000.9
20260904040005 58 271 6.0 17.0 0.00 0.58 0.00 88 1000.9
20260904035504 58 273 7.0 17.0 0.00 0.58 0.00 88 1001.9
20260904035005 58 275 7.0 17.0 0.00 0.58 0.00 88 1001.9
20260904034004 58 276 6.0 11.0 0.00 0.58 0.00 88 1001.9
20260904033503 58 272 6.0 14.0 0.00 0.58 0.00 88 1001.9
20260904033004 58 270 7.0 14.0 0.00 0.58 0.00 88 1001.9
20260904032503 58 270 8.0 17.0 0.00 0.58 0.00 88 1001.9
20260904032004 58 273 8.0 17.0 0.00 0.58 0.00 87 1001.9
20260904031503 58 272 8.0 15.0 0.00 0.58 0.00 87 1001.9
20260904031005 58 260 7.0 15.0 0.00 0.58 0.00 88 1001.9
20260904030504 58 243 5.0 13.0 0.00 0.58 0.00 88 1001.9
20260904030005 58 258 5.0 12.0 0.00 0.58 0.00 88 1001.9
20260904025503 58 270 6.0 12.0 0.00 0.58 0.00 89 1001.9
20260904025004 58 277 6.0 12.0 0.00 0.58 0.00 89 1001.9
20260904024504 58 283 5.0 14.0 0.00 0.58 0.00 89 1001.9
20260904024004 58 276 4.0 14.0 0.00 0.58 0.00 89 1001.9
20260904023504 58 259 4.0 13.0 0.00 0.58 0.00 89 1001.9
20260904023004 58 258 5.0 16.0 0.00 0.58 0.00 88 1001.9
20260904022004 58 274 6.0 15.0 0.00 0.58 0.00 88 1001.9
20260904021503 58 284 5.0 10.0 0.00 0.58 0.00 89 1001.9
20260904021004 58 292 5.0 10.0 0.00 0.58 0.00 88 1001.9
20260904020504 58 282 4.0 10.0 0.00 0.58 0.00 88 1001.9
20260904020004 58 273 5.0 13.0 0.00 0.58 0.00 88 1001.9
20260904015504 58 270 6.0 13.0 0.00 0.58 0.00 88 1002.9
20260904015004 58 274 5.0 11.0 0.00 0.58 0.00 87 1002.9
20260904014005 58 285 7.0 17.0 0.00 0.58 0.00 87 1002.9
20260904013503 58 290 6.0 17.0 0.00 0.58 0.00 88 1002.9
20260904013005 58 278 8.0 19.0 0.00 0.58 0.00 88 1002.9
20260904012503 58 272 8.0 19.0 0.00 0.58 0.00 87 1002.9
20260904011503 58 265 8.0 15.0 0.00 0.58 0.00 87 1002.9
20260904011004 58 255 8.0 14.0 0.00 0.58 0.00 88 1002.9
20260904010504 58 264 8.0 19.0 0.00 0.58 0.00 88 1002.9
20260904010005 58 278 10.0 19.0 0.00 0.58 0.00 88 1002.9
20260904005004 58 270 10.0 18.0 0.00 0.58 0.00 89 1002.9
20260904004504 58 267 9.0 22.0 0.00 0.58 0.00 89 1002.9
20260904004004 58 276 10.0 22.0 0.00 0.58 0.00 89 1002.9
20260904003504 58 273 9.0 18.0 0.00 0.58 0.00 90 1002.9
20260904003004 58 271 8.0 14.0 0.00 0.58 0.00 90 1002.9
20260904002503 58 281 8.0 19.0 0.00 0.58 0.00 89 1002.9
20260904002005 59 280 9.0 19.0 0.00 0.58 0.00 89 1002.9
20260904001503 59 269 8.0 16.0 0.00 0.58 0.00 89 1002.9
20260904001005 59 260 6.0 14.0 0.00 0.58 0.00 91 1002.9
20260904000005 59 277 7.0 22.0 0.00 0.58 0.00 91 1002.9
20260903235503 59 286 7.0 22.0 0.00 0.58 0.00 91 1002.9
20260903235005 59 288 8.0 20.0 0.00 0.58 0.00 92 1002.9
20260903234503 59 274 8.0 20.0 0.00 0.58 0.00 93 1002.9
20260903234005 59 271 7.0 15.0 0.00 0.58 0.00 93 1003.9
20260903233503 59 281 8.0 18.0 0.00 0.58 0.00 93 1003.9
20260903233005 59 284 7.0 18.0 0.00 0.58 0.00 93 1003.9
20260903232004 59 278 6.0 18.0 0.00 0.58 0.00 94 1002.9
20260903231504 59 287 8.0 18.0 0.00 0.58 0.00 94 1002.9
20260903231004 59 279 8.0 18.0 0.00 0.58 0.00 94 1002.9
20260903230504 59 276 7.0 18.0 0.00 0.58 0.00 95 1002.9
20260903225503 60 262 7.0 15.0 0.00 0.58 0.00 96 1002.9
20260903225005 60 271 9.0 19.0 0.00 0.58 0.00 96 1002.9
20260903224503 60 279 8.0 19.0 0.00 0.58 0.00 96 1002.9
20260903224004 60 282 7.0 15.0 0.00 0.58 0.00 97 1002.9
20260903223503 60 284 8.0 17.0 0.00 0.58 0.00 97 1002.9
20260903223004 60 283 8.0 17.0 0.00 0.58 0.00 100 1002.9
20260903222004 60 274 6.0 14.0 0.00 0.58 0.00 100 1002.9
20260903221504 60 269 6.0 16.0 0.00 0.58 0.00 100 1002.9
20260903221004 60 270 9.0 19.0 0.00 0.58 0.00 100 1003.9
20260903220503 60 266 11.0 19.0 0.00 0.58 0.00 97 1003.9
20260903220005 60 266 8.0 17.0 0.00 0.58 0.00 100 1003.9
20260903215503 60 272 6.0 19.0 0.00 0.58 0.58 100 1002.9
20260903215005 60 262 7.0 19.0 0.00 0.58 0.58 100 1002.9
20260903214503 60 273 7.0 18.0 0.00 0.58 0.58 100 1002.9
20260903213504 60 271 9.0 20.0 0.00 0.58 0.58 100 1002.9
20260903213005 60 270 10.0 21.0 0.00 0.58 0.58 100 1002.9
20260903212503 60 279 9.0 21.0 0.00 0.58 0.58 100 1002.9